SCP
0 0 0 0 0 0 0 0 0 0 0 0 0 0 1 2 3 3 3 3 3 3 3 3 3 3 3 3 3 3 2 2 3 3 3 4 4 4 4 3 2 1 1 1
0 0 0 0 0 0 0 0 0 0 0 0 0 0 1 2 3 4 4 4 4 4 4 4 3 3 3 3 3 3 3 3 3 4 4 4 4 4 4 4 3 2 2 1
0 0 0 0 0 0 0 0 0 0 0 0 0 0 1 2 3 4 4 5 5 4 4 4 4 3 3 3 3 3 4 4 4 4 4 4 4 5 5 4 4 3 2 2
0 0 0 0 0 0 0 0 0 0 0 0 0 0 1 1 2 3 3 4 4 4 4 4 4 4 4 4 4 4 4 5 5 5 4 4 4 4 4 4 4 3 3 2
0 0 0 0 0 0 0 0 0 0 0 0 0 0 0 1 1 2 2 3 3 4 4 5 5 5 5 5 5 4 4 5 5 4 4 4 4 4 4 4 3 3 3 2
0 0 0 0 0 0 0 0 0 0 0 0 0 0 0 1 1 2 2 2 3 4 4 5 5 6 6 6 5 5 5 5 5 4 4 4 4 4 3 3 3 2 2 2
0 0 0 0 0 0 0 0 0 0 0 0 0 0 1 1 2 2 2 2 3 3 4 5 5 6 6 6 5 5 5 5 5 5 4 4 4 3 3 3 2 2 2 1
0 0 0 0 0 0 0 0 0 0 0 0 0 1 1 2 2 2 2 2 2 3 3 4 4 5 5 5 5 5 5 5 5 4 4 4 4 3 3 3 3 2 2 1
0 0 0 0 0 0 0 0 0 1 1 0 0 1 1 1 2 2 2 2 2 2 2 3 3 4 4 4 4 4 4 4 4 4 3 3 3 3 2 2 2 2 2 1
0 0 0 0 0 0 0 0 1 1 1 0 0 1 1 1 1 1 1 1 1 1 1 2 3 3 3 3 4 4 3 3 3 2 2 2 2 2 1 1 1 1 1 1
0 0 0 0 0 0 0 0 0 1 1 0 0 1 1 1 1 1 1 1 0 0 1 1 2 2 2 2 3 3 2 2 2 1 1 1 1 1 1 1 1 0 0 0
0 0 0 0 0 0 0 0 0 0 0 0 0 0 1 1 1 1 1 0 0 0 0 0 1 1 1 1 1 1 1 1 1 1 1 1 0 0 0 0 0 0 0 0
0 0 0 0 0 0 0 0 0 0 0 0 0 0 1 1 1 1 0 0 0 0 0 0 0 0 0 1 1 1 1 1 1 1 0 0 0 0 0 0 0 0 0 0
0 0 0 0 0 0 0 0 0 0 0 0 0 0 0 0 0 0 0 0 0 0 0 0 0 0 0 0 0 0 0 0 0 0 0 0 0 0 0 0 0 0 0 0
0 0 0 0 0 0 0 0 0 0 0 0 0 0 0 0 0 0 0 0 0 0 0 0 0 0 0 0 0 0 0 0 0 0 0 0 0 0 0 0 0 0 0 0
0 0 0 0 0 0 0 0 0 0 0 1 1 1 0 0 0 0 0 0 0 0 0 0 0 0 0 0 0 0 0 0 0 0 0 0 0 0 0 0 0 0 0 0
0 0 0 0 0 0 0 0 0 0 0 1 1 1 0 0 0 0 0 0 0 0 0 0 0 0 0 0 0 0 0 0 0 0 0 0 0 0 0 0 0 0 0 0
0 0 0 0 0 0 0 0 0 0 0 0 0 0 0 0 0 0 0 0 0 0 0 0 0 0 0 0 0 0 0 0 0 0 0 0 0 0 0 0 0 0 0 0
0 0 0 0 0 0 0 0 0 0 0 0 0 0 0 0 0 0 0 0 0 0 0 0 0 0 0 0 0 0 0 0 0 0 0 0 0 0 0 0 0 0 0 0
0 0 0 0 0 0 0 0 0 0 0 0 0 0 0 0 0 0 0 0 0 0 0 0 0 0 0 0 0 0 0 0 0 0 0 0 0 0 0 0 0 0 0 0
0 0 0 0 0 0 0 0 0 0 0 0 0 0 0 0 0 0 0 0 0 0 0 0 0 0 0 0 0 0 0 0 0 0 0 0 0 0 0 0 0 0 0 0
0 0 0 0 0 0 0 0 0 0 0 0 0 0 0 0 0 0 0 0 0 0 0 0 0 0 0 0 0 0 0 0 0 0 0 0 0 0 0 0 0 0 0 0
0 0 0 0 0 0 0 0 0 0 0 0 0 0 0 0 0 0 0 0 0 0 0 0 0 0 0 0 0 0 0 0 0 0 0 0 0 0 0 0 0 0 0 0
0 0 0 0 0 0 0 0 0 0 0 0 0 0 0 0 0 0 0 0 0 0 0 0 0 0 0 0 0 0 0 0 0 0 0 0 0 0 0 0 0 0 0 0
0 0 0 0 0 0 0 0 0 0 0 0 0 0 0 0 0 0 0 0 0 0 0 0 0 0 0 0 0 0 0 0 0 0 0 0 0 0 0 0 0 0 0 0
0 0 0 0 0 0 0 0 0 0 0 0 0 0 0 0 0 0 0 0 0 0 0 0 0 0 0 0 0 0 0 0 0 0 0 0 0 0 0 0 0 0 0 0
Wind_Speed
4 8 8 6 7 7 6 10 11 9 4 9 13 13 10 3 4 3 3 5 7 8 9 10 11 12 12 12 12 13 13 12 9 7 6 5 5 4 3 4 6 7 8 7
7 7 2 3 6 8 9 10 11 8 6 9 11 11 6 2 2 1 1 3 4 6 7 9 10 11 12 13 13 13 13 12 10 7 5 3 3 2 2 3 4 6 7 7
6 2 1 6 8 10 11 12 11 10 8 9 10 14 11 5 3 3 3 2 1 2 5 7 9 11 12 13 13 11 12 11 10 9 6 4 3 3 3 3 2 4 6 6
5 2 4 6 6 7 9 6 7 9 11 12 12 13 13 10 8 6 4 3 3 1 2 4 7 9 10 10 9 10 9 9 9 9 8 9 7 7 6 4 2 2 3 5
4 4 6 7 5 6 4 1 6 9 12 14 12 13 11 10 10 7 5 5 6 5 4 2 1 3 4 5 5 5 5 6 6 6 7 8 8 6 5 4 4 3 2 4
5 4 6 5 4 6 3 6 8 10 12 17 17 15 12 7 5 5 5 6 7 7 7 7 6 5 4 3 3 3 4 4 4 4 4 6 6 6 6 6 5 4 3 3
8 10 7 6 10 9 10 11 10 11 14 16 13 12 8 8 5 4 5 6 7 8 9 9 8 7 6 6 5 4 5 5 4 3 2 2 4 5 5 5 5 4 3 3
8 8 6 6 9 10 13 16 13 11 13 11 7 12 3 7 6 6 7 7 8 9 9 10 9 8 7 6 5 5 5 5 4 3 1 0 1 2 2 3 3 3 3 2
7 5 4 3 5 7 8 11 13 13 14 13 11 8 6 6 6 6 7 8 8 8 8 8 8 8 8 7 6 5 5 5 5 4 3 2 2 2 1 1 2 1 1 1
8 10 6 5 6 5 7 5 5 6 8 11 13 13 5 10 8 6 6 6 6 6 6 7 7 7 6 6 5 6 5 5 5 4 4 3 3 3 3 2 3 3 3 3
8 9 6 7 8 7 7 7 6 5 5 6 7 4 3 2 7 6 6 6 5 5 5 5 6 6 6 6 6 5 5 5 4 4 4 3 3 3 3 3 4 3 3 3
4 8 9 7 1 4 7 9 8 8 8 7 8 2 7 6 7 7 7 5 4 4 4 5 5 5 6 6 6 5 4 4 4 3 3 3 3 3 3 4 3 3 3 3
2 7 11 8 4 4 7 7 8 8 8 9 10 3 8 7 7 7 5 4 3 3 4 4 5 5 5 5 5 4 4 3 2 2 2 2 2 3 3 4 3 3 3 3
5 8 10 12 9 8 11 10 9 9 9 11 12 6 8 8 7 6 4 3 2 2 3 3 4 4 4 4 4 3 3 2 1 1 1 1 1 2 3 3 3 3 3 4
6 11 11 12 11 12 14 14 13 13 13 14 12 7 4 7 7 6 4 2 1 2 2 3 3 3 3 3 3 2 2 2 0 1 1 1 2 2 3 3 3 3 3 4
5 9 10 12 11 11 14 14 13 12 11 11 10 1 7 8 7 6 5 3 1 1 2 2 2 3 3 3 2 2 2 2 1 1 2 2 1 2 2 2 3 3 3 4
6 8 10 10 7 9 10 7 9 8 5 6 6 2 9 7 7 6 6 5 3 2 2 2 3 3 3 2 2 1 2 2 2 2 2 2 1 2 2 2 2 2 2 3
7 8 7 8 7 6 1 2 4 5 3 1 1 5 7 6 6 5 6 5 4 3 3 1 2 2 2 1 0 1 3 3 2 2 2 2 1 2 2 2 2 2 2 2
5 7 7 6 7 7 2 2 3 5 4 3 3 6 7 7 6 7 7 5 4 3 2 0 2 2 2 1 0 2 3 3 3 2 1 1 0 1 1 1 1 1 2 2
5 6 8 7 8 6 3 3 1 5 5 4 5 6 8 8 7 5 8 6 5 4 3 1 1 1 1 1 1 2 2 2 1 1 0 1 0 0 1 1 0 1 1 2
6 7 7 8 8 5 4 3 4 6 4 2 4 5 7 7 2 6 6 6 5 4 3 1 1 1 2 2 0 1 2 1 1 2 2 1 1 1 1 0 0 1 1 2
6 5 5 5 7 2 5 4 5 5 4 3 4 5 5 4 3 4 5 5 5 5 4 2 1 1 2 2 2 3 2 2 2 2 2 2 2 1 2 2 3 3 3 3
6 5 4 4 4 3 4 6 2 3 3 3 5 5 6 5 5 5 5 4 4 3 3 2 2 3 3 2 2 4 2 1 2 2 3 2 2 3 3 4 4 4 4 3
6 4 7 8 7 6 7 8 7 6 5 5 6 6 6 5 4 4 4 4 4 4 4 4 3 3 4 4 4 4 3 1 1 2 2 2 2 3 4 3 4 4 3 3
7 6 9 12 11 8 10 11 11 9 8 7 7 7 7 6 5 5 5 5 5 5 5 4 4 4 5 5 5 4 3 2 2 2 3 3 4 4 4 4 4 4 3 3
12 11 12 11 10 9 8 9 13 13 12 11 10 9 8 7 7 6 6 7 6 6 6 5 5 5 6 5 5 4 2 1 1 2 3 2 3 4 4 5 5 4 3 3
Wind_Direction
195 228 227 232 244 287 269 245 228 218 180 233 228 234 238 272 257 218 189 183 187 195 199 202 208 210 204 203 204 208 214 213 215 216 219 224 233 248 259 261 263 263 263 264
209 223 254 268 244 239 239 238 233 218 211 241 234 232 230 301 298 317 180 186 193 188 194 202 209 212 213 207 210 213 217 218 216 217 219 220 227 241 267 291 293 284 279 276
249 91 189 227 217 222 228 236 236 232 207 229 244 239 215 173 156 119 98 95 147 203 212 205 210 216 217 216 214 218 219 218 216 215 211 196 193 201 211 227 242 278 290 289
240 184 229 226 221 237 224 227 252 246 239 231 223 251 212 179 174 152 116 90 70 51 270 233 219 219 222 221 218 219 219 218 217 215 216 213 214 213 214 211 216 258 300 306
192 203 227 231 231 255 279 250 247 252 253 258 235 249 242 179 191 153 102 63 44 33 17 356 279 225 215 211 206 202 202 201 201 213 216 217 223 222 212 205 221 240 269 292
255 232 262 267 254 257 245 238 241 246 251 247 243 246 253 200 174 132 89 64 52 45 44 40 40 60 78 95 123 140 151 151 161 185 206 224 230 224 219 224 232 245 261 275
236 225 218 241 246 221 225 236 236 233 227 241 236 242 250 89 83 76 75 67 58 51 48 45 45 59 72 77 86 107 120 121 126 143 178 223 236 228 229 238 238 242 252 256
265 248 200 217 246 252 232 238 243 253 252 249 201 240 204 106 108 105 91 77 62 52 47 44 40 44 58 72 80 89 100 105 106 106 99 360 283 259 250 250 259 250 252 254
270 260 146 218 246 255 244 242 252 262 272 273 246 222 141 147 142 121 99 80 63 50 46 45 42 42 44 50 58 72 89 94 89 85 82 65 42 9 7 338 296 296 302 284
278 274 218 191 214 222 266 249 231 239 251 250 256 252 243 181 170 136 103 81 65 55 51 48 47 47 50 52 55 62 70 77 80 82 75 71 58 44 37 25 27 13 2 347
264 272 247 211 229 234 214 227 235 232 239 256 266 256 42 150 151 138 109 82 57 44 42 45 45 44 49 55 55 56 63 70 71 64 67 67 64 63 58 51 41 28 14 355
265 280 275 255 273 315 278 262 253 251 246 242 270 269 101 100 104 108 104 88 56 29 26 36 41 42 41 42 47 53 57 59 57 55 53 68 79 75 82 82 65 43 19 349
304 275 276 258 231 232 253 257 256 261 268 257 260 248 120 122 107 95 87 74 47 14 10 19 30 33 32 32 36 43 57 63 52 50 57 66 95 103 94 87 77 53 24 1
291 277 284 288 297 299 290 280 270 260 260 265 267 268 157 153 135 113 89 57 14 352 352 4 15 24 24 23 26 30 46 64 93 140 138 130 116 115 109 95 79 56 37 24
274 277 279 278 277 276 276 278 279 273 271 275 286 299 130 148 141 126 115 95 346 320 338 358 2 10 7 16 22 35 39 43 9 172 148 136 130 130 116 100 86 73 51 41
280 291 291 281 272 273 272 270 269 271 279 283 284 276 109 128 137 140 148 160 189 277 318 338 347 354 358 0 7 52 69 56 58 84 95 87 101 124 113 104 109 97 71 49
283 289 292 290 298 280 272 276 271 275 286 299 300 125 147 159 163 164 169 180 192 237 276 316 340 341 341 346 351 55 98 99 90 80 80 81 94 102 94 108 117 102 76 58
286 289 285 295 302 274 44 6 302 290 281 286 124 145 166 163 164 174 186 191 195 205 218 258 317 333 331 326 68 129 132 126 115 96 80 63 57 73 69 71 66 54 35 40
278 283 290 292 295 292 155 197 254 278 275 201 193 170 172 164 188 196 193 200 198 185 176 231 327 335 330 335 36 175 164 158 148 134 111 97 117 130 108 72 46 16 12 7
222 250 271 284 298 300 52 103 214 278 264 152 192 191 183 192 230 156 151 170 169 169 167 198 311 345 359 356 263 211 162 160 139 112 94 60 48 151 170 138 353 320 348 335
243 244 259 277 279 286 82 135 212 260 39 92 215 206 199 213 326 100 142 155 162 165 164 196 248 43 39 11 317 128 90 44 26 36 43 36 48 45 353 263 346 335 343 342
278 273 259 270 273 339 117 194 248 351 17 279 226 204 200 193 153 154 158 159 167 174 172 177 163 92 67 61 97 101 83 26 15 35 37 36 48 47 50 58 54 40 22 12
242 275 300 288 310 32 226 242 270 300 276 232 204 188 192 197 190 177 168 166 170 170 151 158 151 129 111 98 106 105 83 49 47 70 77 65 61 69 65 64 56 48 35 23
213 213 254 260 260 239 225 228 224 225 230 203 198 191 197 199 185 175 166 158 154 149 148 147 141 136 120 105 100 103 103 96 132 134 132 130 103 89 81 73 66 60 41 33
275 211 248 256 264 260 233 226 218 207 209 202 197 195 197 190 180 172 161 153 146 141 136 137 135 128 119 117 118 114 114 123 136 139 145 149 142 131 118 104 87 89 88 63
259 247 251 264 265 252 252 224 211 203 204 203 198 195 193 191 179 172 162 156 154 148 144 142 136 129 126 130 128 128 135 142 118 123 122 127 125 128 136 133 125 87 74 90